This is the latest recevied weather packets stored in our database for station/object KY4GW. If no packets are shown the sender has not sent any weather packets the latest 10 day(s).
| Time | Temp. | Humidity | Pressure | Rain* | Wind** | Luminosity | Snow |
|---|---|---|---|---|---|---|---|
| 1777511348 | 13.33° C | 83% | 1014.8 hPa | 0 mm | - | 0 W/m² | - |
| 1777510436 | 13.89° C | 78% | 1015.1 hPa | 0 mm | - | 0 W/m² | - |
| 1777510132 | 14.44° C | 75% | 1015.1 hPa | 0 mm | - | 0 W/m² | - |
| 1777509222 | 15.56° C | 74% | 1014.8 hPa | 0 mm | - | 1 W/m² | - |
| 1777508010 | 16.11° C | 71% | 1014.4 hPa | 0 mm | - | 7 W/m² | - |
| 1777507707 | 16.11° C | 75% | 1014.4 hPa | 0 mm | - | 9 W/m² | - |
| 1777507101 | 16.11° C | 68% | 1014.4 hPa | 0 mm | - | 26 W/m² | - |
| 1777503767 | 17.78° C | 68% | 1014.4 hPa | 0 mm | - | 77 W/m² | - |
| 1777502554 | 17.78° C | 67% | 1014.4 hPa | 0 mm | - | 75 W/m² | - |
| 1777501948 | 17.78° C | 67% | 1014.4 hPa | 0 mm | - | 76 W/m² | - |
| 1777501646 | 17.78° C | 72% | 1014.4 hPa | 0 mm | - | 108 W/m² | - |
| 1777501342 | 18.33° C | 70% | 1014.4 hPa | 0 mm | - | 82 W/m² | - |
| 1777501040 | 18.33° C | 67% | 1014.4 hPa | 0 mm | - | 85 W/m² | - |
| 1777500738 | 17.78° C | 65% | 1014.4 hPa | 0 mm | - | 65 W/m² | - |
| 1777500435 | 17.78° C | 68% | 1014.4 hPa | 0 mm | - | 77 W/m² | - |
| 1777500130 | 17.78° C | 65% | 1014.4 hPa | 0 mm | - | 82 W/m² | - |
| 1777499828 | 17.78° C | 67% | 1014.1 hPa | 0 mm | - | 55 W/m² | - |
| 1777499523 | 17.78° C | 73% | 1014.1 hPa | 0 mm | - | 73 W/m² | - |
| 1777499222 | 17.78° C | 65% | 1014.1 hPa | 0 mm | - | 101 W/m² | - |
| 1777497706 | 18.33° C | 68% | 1013.8 hPa | 0 mm | - | 129 W/m² | - |
| 1777496795 | 17.78° C | 69% | 1014.1 hPa | 0 mm | - | 114 W/m² | - |
| 1777496492 | 18.33° C | 67% | 1014.1 hPa | 0 mm | - | 203 W/m² | - |
| 1777494671 | 17.22° C | 74% | 1014.1 hPa | 0 mm | - | 93 W/m² | - |
| 1777494064 | 17.78° C | 70% | 1014.1 hPa | 0 mm | - | 149 W/m² | - |
| 1777491943 | 17.22° C | 75% | 1013.8 hPa | 0 mm | - | 527 W/m² | - |
* Rain latest hour (hover to see other rain measurements)
** Current wind speed in m/s (hover to see current wind gust speed)